Startpagina
METAR-TAF:

METAR-TAF

Vliegvelden :

K14-fa-1c, Nederland

Productieplatform

breedte: 53-16-10N, lengte: 3-37-40E, hoogte: 28 m

Actueel weer

Dit bericht is 16 minuten geleden gemaakt, om 02:55 UTC
Wind 6 kt uit het westen
Temperatuur 18°C
Vochtigheid 73%
Druk 1013 hPa
Zicht 10 km of meer
Verspreide wolken op 3600 ft

METAR: EHKV 240255Z AUTO 28006KT 9999 SCT036 18/13 Q1013

Tijdstip: 05:11 (03:11 UTC)


TAF: ontbreekt

Waarnemingen en weersverwachtingen van meer dan 4000 vliegvelden (METAR en TAF).

De beschikbare stations zijn de gele en rode punten op de kaart.

Ga met uw muis naar het station om de naam te zien.

Klik dan om waarnemingen en weersverwachtingen te zien.

kaart wijzigen: klik op de groene knoppen met een zwart kruis om in te zoomen, op de groene knop met een streepje om uit te zoomen of op de groene pijlen voor aangrenzende kaarten.


METAR-TAF: